When you browse on this site, cookies collect data to enhance your experience and personalize the content and advertising you see.
Visit our Privacy Policy to learn more. By continuing to use the site, you agree to this use of cookies and data.
  • Em Portugal
  • Lista de países
  • Para 7 dias
  • Temperatura da água
  • Mapas de satélite
  • Mapa do tempo
  • Widgets de tempo
  • user-avatar
    Iniciar Sessão

    Previsão horária em Kowalowa

    Hoje, 20 Março, Quarta-feira

    Tempo Temperatura Precipitação Vento Pressão Humidade
    00:00 0°C° 0 mm 1 m/s 723 mmHg 80%
    01:00 0°C° 0 mm 1 m/s 723 mmHg 80%
    02:00 0°C° 0 mm 1 m/s 723 mmHg 81%
    03:00 0°C° 0 mm 1 m/s 724 mmHg 82%
    04:00 0°C° 0 mm 1 m/s 724 mmHg 83%
    05:00 0°C° 0 mm 1 m/s 724 mmHg 81%
    06:00 +1°C° 0 mm 1 m/s 725 mmHg 80%
    07:00 +1°C° 0 mm 1 m/s 725 mmHg 76%
    08:00 +3°C° 0 mm 1 m/s 725 mmHg 68%
    09:00 +4°C° 0 mm 1 m/s 726 mmHg 60%
    10:00 +6°C° 0 mm 1 m/s 726 mmHg 52%
    11:00 +7°C° 0 mm 1 m/s 726 mmHg 49%
    12:00 +7°C° 0 mm 2 m/s 726 mmHg 46%
    13:00 +7°C° 0 mm 2 m/s 726 mmHg 43%
    14:00 +7°C° 0 mm 2 m/s 726 mmHg 43%
    15:00 +7°C° 0 mm 2 m/s 726 mmHg 43%
    16:00 +8°C° 0 mm 2 m/s 726 mmHg 44%
    17:00 +7°C° 0 mm 1 m/s 726 mmHg 51%
    18:00 +5°C° 0 mm 1 m/s 726 mmHg 58%
    19:00 +4°C° 0 mm 1 m/s 725 mmHg 66%
    20:00 +3°C° 0 mm 1 m/s 726 mmHg 67%
    21:00 +3°C° 0 mm 1 m/s 726 mmHg 69%
    22:00 +3°C° 0 mm 1 m/s 726 mmHg 71%
    23:00 +3°C° 0 mm 1 m/s 726 mmHg 70%

    Amanhã, 21 Março, Quinta-feira

    Tempo Temperatura Precipitação Vento Pressão Humidade
    00:00 +3°C° 0 mm 1 m/s 726 mmHg 70%
    01:00 +2°C° 0 mm 1 m/s 726 mmHg 70%
    02:00 +2°C° 0 mm 1 m/s 726 mmHg 71%
    03:00 +2°C° 0 mm 1 m/s 726 mmHg 72%
    04:00 +2°C° 0 mm 1 m/s 726 mmHg 72%
    05:00 +3°C° 0 mm 1 m/s 726 mmHg 73%
    06:00 +3°C° 0 mm 1 m/s 726 mmHg 73%
    07:00 +3°C° 0 mm 1 m/s 727 mmHg 74%
    08:00 +5°C° 0 mm 1 m/s 727 mmHg 69%
    09:00 +6°C° 0 mm 2 m/s 727 mmHg 65%
    10:00 +9°C° 0 mm 2 m/s 728 mmHg 61%
    11:00 +9°C° 0 mm 2 m/s 727 mmHg 60%
    12:00 +10°C° 0 mm 2 m/s 727 mmHg 59%
    13:00 +12°C° 0 mm 2 m/s 727 mmHg 58%
    14:00 +12°C° 0 mm 2 m/s 727 mmHg 59%
    15:00 +12°C° 0 mm 2 m/s 727 mmHg 59%
    16:00 +13°C° 0 mm 1 m/s 726 mmHg 59%
    17:00 +11°C° 0 mm 1 m/s 726 mmHg 66%
    18:00 +10°C° 0 mm 1 m/s 726 mmHg 72%
    19:00 +8°C° 0 mm 1 m/s 726 mmHg 79%
    20:00 +8°C° 0 mm 1 m/s 726 mmHg 81%
    21:00 +7°C° 0 mm 1 m/s 726 mmHg 83%
    22:00 +6°C° 0 mm 0 m/s 726 mmHg 85%
    23:00 +5°C° 0 mm 0 m/s 726 mmHg 86%

    Depois de amanhã, 22 Março, Sexta-feira

    Tempo Temperatura Precipitação Vento Pressão Humidade
    00:00 +6°C° 0 mm 1 m/s 726 mmHg 87%
    01:00 +6°C° 0 mm 1 m/s 726 mmHg 87%
    02:00 +6°C° 0 mm 1 m/s 726 mmHg 88%
    03:00 +6°C° 0 mm 1 m/s 725 mmHg 88%
    04:00 +6°C° 0 mm 1 m/s 725 mmHg 88%
    05:00 +6°C° 0 mm 1 m/s 725 mmHg 87%
    06:00 +6°C° 0 mm 1 m/s 725 mmHg 86%
    07:00 +6°C° 0 mm 1 m/s 725 mmHg 85%
    08:00 +8°C° 0 mm 0 m/s 726 mmHg 78%
    09:00 +10°C° 0 mm 0 m/s 726 mmHg 70%
    10:00 +12°C° 0 mm 0 m/s 726 mmHg 63%
    11:00 +13°C° 0 mm 0 m/s 726 mmHg 60%
    12:00 +14°C° 0 mm 0 m/s 726 mmHg 56%
    13:00 +15°C° 0 mm 0 m/s 726 mmHg 53%
    14:00 +15°C° 0 mm 0 m/s 725 mmHg 53%
    15:00 +16°C° 0 mm 1 m/s 725 mmHg 53%
    16:00 +16°C° 0 mm 1 m/s 724 mmHg 53%
    17:00 +14°C° 0 mm 1 m/s 724 mmHg 60%
    18:00 +13°C° 0 mm 1 m/s 724 mmHg 66%
    19:00 +11°C° 0 mm 1 m/s 723 mmHg 72%
    20:00 +11°C° 0 mm 1 m/s 723 mmHg 73%
    21:00 +10°C° 0 mm 1 m/s 723 mmHg 74%
    22:00 +9°C° 0 mm 2 m/s 723 mmHg 75%
    23:00 +8°C° 0 mm 2 m/s 723 mmHg 76%

    23 Março, Sábado

    Tempo Temperatura Precipitação Vento Pressão Humidade
    00:00 +8°C° 0 mm 2 m/s 723 mmHg 77%
    01:00 +7°C° 0 mm 2 m/s 723 mmHg 78%
    02:00 +7°C° 0 mm 2 m/s 723 mmHg 79%
    03:00 +7°C° 0 mm 2 m/s 722 mmHg 79%
    04:00 +7°C° 0 mm 2 m/s 722 mmHg 79%
    05:00 +7°C° 0 mm 2 m/s 722 mmHg 79%
    06:00 +7°C° 0 mm 2 m/s 722 mmHg 78%
    07:00 +7°C° 0 mm 2 m/s 722 mmHg 77%
    08:00 +9°C° 0 mm 2 m/s 723 mmHg 69%
    09:00 +12°C° 0 mm 2 m/s 723 mmHg 61%
    10:00 +14°C° 0 mm 2 m/s 723 mmHg 52%
    11:00 +15°C° 0 mm 2 m/s 723 mmHg 51%
    12:00 +16°C° 0 mm 2 m/s 723 mmHg 49%
    13:00 +17°C° 0 mm 2 m/s 723 mmHg 47%
    14:00 +17°C° 0 mm 2 m/s 723 mmHg 48%
    15:00 +16°C° 0 mm 2 m/s 723 mmHg 50%
    16:00 +16°C° 0 mm 3 m/s 722 mmHg 52%
    17:00 +14°C° 0 mm 3 m/s 722 mmHg 60%
    18:00 +12°C° 0 mm 3 m/s 723 mmHg 68%
    19:00 +10°C° 0 mm 3 m/s 723 mmHg 76%
    20:00 +9°C° 0 mm 2 m/s 723 mmHg 81%
    21:00 +9°C° 0 mm 2 m/s 723 mmHg 86%
    22:00 +8°C° 0 mm 2 m/s 723 mmHg 92%
    23:00 +8°C° 0 mm 3 m/s 723 mmHg 89%

    24 Março, Domingo

    Tempo Temperatura Precipitação Vento Pressão Humidade
    00:00 +7°C° 0 mm 3 m/s 723 mmHg 87%
    01:00 +7°C° 0 mm 3 m/s 723 mmHg 85%
    02:00 +5°C° 0 mm 3 m/s 723 mmHg 81%
    03:00 +5°C° 0 mm 2 m/s 723 mmHg 77%
    04:00 +4°C° 0 mm 2 m/s 723 mmHg 72%
    05:00 +4°C° 0 mm 2 m/s 722 mmHg 70%
    06:00 +4°C° 0 mm 2 m/s 722 mmHg 69%
    07:00 +3°C° 0 mm 2 m/s 722 mmHg 67%
    08:00 +4°C° 0 mm 2 m/s 722 mmHg 64%
    09:00 +6°C° 0 mm 2 m/s 722 mmHg 61%
    10:00 +7°C° 0 mm 2 m/s 722 mmHg 59%
    11:00 +8°C° 0 mm 2 m/s 722 mmHg 57%
    12:00 +11°C° 0 mm 1 m/s 722 mmHg 55%
    13:00 +12°C° 0 mm 1 m/s 721 mmHg 54%
    14:00 +12°C° 0 mm 1 m/s 721 mmHg 56%
    15:00 +10°C° 0 mm 2 m/s 720 mmHg 57%
    16:00 +10°C° 0 mm 2 m/s 720 mmHg 59%
    17:00 +9°C° 0 mm 2 m/s 719 mmHg 63%
    18:00 +9°C° 0 mm 1 m/s 719 mmHg 67%
    19:00 +8°C° 0 mm 1 m/s 719 mmHg 71%
    20:00 +7°C° 0 mm 1 m/s 718 mmHg 74%
    21:00 +5°C° 0 mm 0 m/s 718 mmHg 76%
    22:00 +5°C° 0 mm 0 m/s 718 mmHg 79%
    23:00 +6°C° 0 mm 1 m/s 718 mmHg 80%

    25 Março, Segunda-feira

    Tempo Temperatura Precipitação Vento Pressão Humidade
    00:00 +5°C° 0 mm 1 m/s 717 mmHg 81%
    01:00 +5°C° 0 mm 1 m/s 717 mmHg 82%
    02:00 +5°C° 0 mm 1 m/s 716 mmHg 81%
    03:00 +4°C° 0 mm 1 m/s 716 mmHg 79%
    04:00 +4°C° 0 mm 1 m/s 716 mmHg 77%
    05:00 +4°C° 0.1 mm 2 m/s 716 mmHg 78%
    06:00 +4°C° 0.1 mm 2 m/s 716 mmHg 79%
    07:00 +3°C° 0.1 mm 3 m/s 716 mmHg 80%
    08:00 +4°C° 0 mm 4 m/s 716 mmHg 71%
    09:00 +5°C° 0 mm 5 m/s 715 mmHg 62%
    10:00 +4°C° 0 mm 6 m/s 715 mmHg 53%
    11:00 +4°C° 0 mm 6 m/s 715 mmHg 55%
    12:00 +4°C° 0 mm 6 m/s 714 mmHg 57%
    13:00 +4°C° 0 mm 7 m/s 714 mmHg 59%
    14:00 +4°C° 0.2 mm 7 m/s 713 mmHg 62%
    15:00 +2°C° 0.2 mm 8 m/s 713 mmHg 65%
    16:00 +2°C° 0.2 mm 8 m/s 713 mmHg 68%
    17:00 +2°C° 0.1 mm 7 m/s 713 mmHg 67%
    18:00 0°C° 0.1 mm 7 m/s 713 mmHg 67%
    19:00 -1°C° 0.1 mm 6 m/s 713 mmHg 66%
    20:00 -2°C° 0 mm 6 m/s 713 mmHg 68%
    21:00 -2°C° 0 mm 6 m/s 713 mmHg 69%
    22:00 -2°C° 0 mm 6 m/s 713 mmHg 71%
    23:00 -3°C° 0.1 mm 7 m/s 712 mmHg 71%
    Mostrar mais